[[{"header":{"parameterUnit":"m.s-1","parameterCategory":1,"la1":30.2992,"la2":30.254,"lo1":-89.0895,"lo2":-89.0443,"dy":0.0025,"dx":0.0025,"nx":19,"ny":19,"refTime":"2026-04-16T09:00:00:Z","depth":0,"parameterNumber":2,"parameterNumberName":"U-component_of_WINDS"},"data":[0,0,0,-1.2881,-1.2882,-1.2887,-1.2887,-1.2908,-1.2908,0,0,0,0,0,0,0,0,0,0,0,-1.2887,-1.2888,-1.2881,-1.2882,-1.2887,-1.2887,-1.2908,-1.2908,0,0,0,0,0,0,0,0,0,0,0,-1.2887,-1.2888,-1.2888,-1.2882,-1.2887,-1.2887,-1.2908,-1.2899,0,0,0,0,0,0,0,0,0,0,-1.2891,-1.2904,-1.2888,-1.2888,-1.2882,-1.2887,-1.2887,-1.2898,-1.2899,-1.2911,0,-1.2923,0,-1.2916,-1.291,-1.291,0,0,0,-1.2876,-1.2903,-1.2898,-1.2888,-1.2882,-1.2887,-1.2883,-1.2899,-1.29,-1.2913,-1.2923,-1.2923,-1.2916,-1.2911,-1.2911,-1.2995,-1.2996,0,0,-1.2876,-1.2893,-1.2897,-1.2899,-1.2898,-1.2883,-1.2883,-1.2899,-1.2912,-1.2923,-1.2924,-1.2917,-1.2911,-1.2911,-1.2994,-1.2995,0,0,0,-1.2879,-1.2893,-1.2886,-1.2898,-1.2898,-1.2883,-1.2884,-1.2911,-1.2908,-1.2924,-1.2917,-1.2911,-1.2911,-1.2994,-1.2995,-1.3043,0,0,0,-1.2878,-1.2894,-1.2887,-1.2897,-1.2898,-1.2905,-1.2896,-1.2907,-1.2908,-1.2917,-1.2911,-1.2912,-1.2993,-1.2994,-1.304,-1.3063,0,0,0,-1.2884,-1.2895,-1.2898,-1.2898,-1.2901,-1.2904,-1.2901,-1.2906,-1.2904,-1.291,-1.2912,-1.2992,-1.2994,-1.3038,-1.3059,-1.3091,0,0,0,-1.2896,-1.2941,-1.2899,-1.2947,-1.2901,-1.2934,-1.2901,-1.2925,-1.2936,-1.2911,-1.2993,-1.2995,-1.3037,-1.3056,-1.3088,-1.312,-1.3135,0,0,-1.2963,-1.295,-1.2977,-1.294,-1.2984,-1.2932,-1.2984,-1.2979,-1.2964,-1.2986,-1.2988,-1.3041,-1.3059,-1.309,-1.3213,-1.3225,0,0,0,-1.3004,-1.3023,-1.3032,-1.3043,-1.304,-1.304,-1.3025,-1.3023,-1.304,-1.2978,-1.3061,-1.3071,-1.3088,-1.3103,-1.3113,-1.3127,-1.3002,-1.3002,-1.3002,-1.3122,-1.3101,-1.3144,-1.3124,-1.3136,-1.312,-1.3128,-1.3123,-1.3098,-1.3118,-1.3124,-1.3202,-1.3219,-1.3227,-1.3242,-1.314,-1.314,-1.314,-1.314,-1.3218,-1.3242,-1.3209,-1.3239,-1.3217,-1.3242,-1.3229,-1.3211,-1.3231,-1.3195,-1.321,-1.3172,-1.3241,-1.3253,-1.3144,-1.3143,-1.3143,-1.3142,-1.3142,-1.3293,-1.3301,-1.3298,-1.3313,-1.3327,-1.3305,-1.3326,-1.3305,-1.3286,-1.33,-1.3305,-1.3304,-1.33,-1.3304,-1.3304,-1.3304,-1.3305,-1.3305,-1.3305,-1.3372,-1.3367,-1.3387,-1.3388,-1.3393,-1.3397,-1.3382,-1.3387,-1.3386,-1.3369,-1.3369,-1.3343,-1.3251,-1.3229,-1.3309,-1.3308,-1.3308,-1.3307,-1.3307,-1.3477,-1.345,-1.3481,-1.3486,-1.3486,-1.3502,-1.3475,-1.3486,-1.3486,-1.3498,-1.3469,-1.3404,-1.339,-1.3381,-1.3363,-1.3473,-1.3473,-1.3473,-1.3473,-1.354,-1.3531,-1.3558,-1.3568,-1.3575,-1.3554,-1.3591,-1.358,-1.3565,-1.3564,-1.3545,-1.3519,-1.3511,-1.3501,-1.349,-1.3472,-1.3608,-1.3608,-1.3608,-1.3603,-1.3594,-1.3629,-1.3613,-1.3612,-1.3611,-1.3646,-1.3658,-1.3636,-1.3613,-1.3563,-1.3558,-1.3514,-1.3501,-1.3477,-1.3461,-1.3428,0,0]},{"header":{"parameterUnit":"m.s-1","parameterCategory":1,"la1":30.2992,"la2":30.254,"lo1":-89.0895,"lo2":-89.0443,"dy":0.0025,"dx":0.0025,"nx":19,"ny":19,"refTime":"2026-04-16T09:00:00:Z","depth":0,"parameterNumber":3,"parameterNumberName":"V-component_of_WINDS"},"data":[0,0,0,3.8393,3.8393,3.8408,3.8408,3.8421,3.8421,0,0,0,0,0,0,0,0,0,0,0,3.8386,3.8386,3.8393,3.8393,3.8408,3.8408,3.8421,3.8421,0,0,0,0,0,0,0,0,0,0,0,3.8386,3.8386,3.8386,3.8393,3.8408,3.8408,3.8421,3.8412,0,0,0,0,0,0,0,0,0,0,3.8398,3.8389,3.8386,3.8386,3.8393,3.8408,3.8408,3.8411,3.8412,3.8412,0,3.8413,0,3.8417,3.8422,3.8422,0,0,0,3.8394,3.8389,3.8395,3.8386,3.8393,3.8407,3.8401,3.8412,3.8413,3.8414,3.8413,3.8413,3.8417,3.8422,3.8422,3.8422,3.8421,0,0,3.8394,3.8386,3.8394,3.8396,3.8394,3.8401,3.8402,3.8413,3.8411,3.8413,3.8414,3.8418,3.8422,3.8422,3.8422,3.8422,0,0,0,3.839,3.8386,3.8392,3.8395,3.8398,3.8401,3.8402,3.841,3.8413,3.8414,3.8418,3.8422,3.8422,3.8422,3.8422,3.8412,0,0,0,3.839,3.8384,3.8392,3.8388,3.8398,3.8404,3.84,3.8412,3.8414,3.8418,3.8422,3.8422,3.8422,3.8422,3.8412,3.8408,0,0,0,3.8386,3.8383,3.8385,3.8387,3.8393,3.8404,3.8408,3.8413,3.8416,3.8422,3.8422,3.8422,3.8422,3.8413,3.8409,3.8407,0,0,0,3.8378,3.8374,3.8385,3.8382,3.8393,3.8399,3.8408,3.8412,3.8416,3.8422,3.8422,3.8422,3.8413,3.8409,3.8407,3.8404,3.8402,0,0,3.8369,3.8373,3.8372,3.8382,3.8384,3.8397,3.8398,3.8407,3.8413,3.8418,3.8418,3.8412,3.8409,3.8407,3.8393,3.8392,0,0,0,3.8366,3.8366,3.8368,3.8372,3.8381,3.8388,3.8399,3.8403,3.8408,3.8415,3.8411,3.8409,3.8409,3.8407,3.8406,3.8406,3.8421,3.8421,3.8421,3.8341,3.8352,3.8352,3.8365,3.8369,3.8382,3.8386,3.8393,3.84,3.84,3.8401,3.8392,3.839,3.8389,3.8389,3.84,3.84,3.84,3.84,3.8329,3.8329,3.8343,3.8347,3.8358,3.8362,3.8375,3.838,3.8385,3.8391,3.8391,3.8396,3.8387,3.8387,3.84,3.84,3.84,3.84,3.84,3.8313,3.8315,3.8322,3.8332,3.8338,3.8351,3.8356,3.8366,3.8375,3.8375,3.8378,3.8378,3.838,3.8376,3.8376,3.8376,3.8376,3.8376,3.8376,3.8294,3.8302,3.8305,3.8317,3.8323,3.8331,3.8346,3.8352,3.836,3.8367,3.8367,3.8375,3.8384,3.8387,3.8375,3.8375,3.8375,3.8375,3.8375,3.8276,3.8282,3.8288,3.8294,3.8309,3.8316,3.833,3.8341,3.8347,3.8349,3.8358,3.8364,3.8368,3.8369,3.8371,3.8356,3.8356,3.8356,3.8356,3.8262,3.8267,3.8276,3.8285,3.8295,3.8309,3.8316,3.8328,3.8342,3.8346,3.835,3.8354,3.8355,3.8358,3.8359,3.8361,3.8344,3.8344,3.8344,3.8252,3.8258,3.8262,3.8277,3.8291,3.8303,3.8309,3.8319,3.8336,3.8344,3.835,3.8351,3.8357,3.8358,3.8364,3.8366,3.837,0,0]}]]